Change the Weather History Date:

Sunday, March 16, 2014

  Actual Average Record
Temperature  
Mean Temperature 23 °F 37 °F  
Max Temperature 28 °F 47 °F 80 °F (2012)
Min Temperature 17 °F 27 °F 17 °F (2014)
Degree Days  
Heating Degree Days 42 28  
Month to date heating degree days 642 500  
Since 1 July heating degree days 6218 5638  
Cooling Degree Days 0 0  
Month to date cooling degree days 0 0  
Year to date cooling degree days 0 0  
Moisture  
Dew Point 14 °F    
Average Humidity 61    
Maximum Humidity 75    
Minimum Humidity 46    
Precipitation  
Precipitation T in 0.07 in 0.05 in (2001)
Month to date precipitation 0.16 1.09  
Year to date precipitation 2.01 4.18  
Sea Level Pressure  
Sea Level Pressure 30.29 in    
Wind  
Wind Speed 19 mph (NE)    
Max Wind Speed 32 mph    
Max Gust Speed 40 mph    
Visibility 8 miles    
Events Snow    
T = Trace of Precipitation, MM = Missing Value Source: NWS Daily Summary

Daily Weather History Graph

Daily Weather History Graph

Search for Another Location

Airport or City:

Trip Planner

Search our weather history database for the weather conditions in past years. The results will help you decide how hot, cold, wet, or windy it might be!

Date:

Astronomy

Mar. 16, 2014 Rise Set
Actual Time 7:04 AM CDT 7:01 PM CDT
Civil Twilight 6:36 AM CDT 7:29 PM CDT
Nautical Twilight 6:04 AM CDT 8:01 PM CDT
Astronomical Twilight 5:31 AM CDT 8:34 PM CDT
Moon 7:19 PM CDT (3/16) 6:47 AM CDT (3/16)
Length of Visible Light 12h 53m
Length of Day
11h 57m
Full, 100% of the Moon is Illuminated
Mar 16
Full
Mar 16
Full
Mar 23
Last Quarter
Mar 30
New
Apr 7
First Quarter

Hourly Weather History & Observations

Time (CDT) Temp. Windchill Dew Point Humidity Pressure Visibility Wind Dir Wind Speed Gust Speed Precip Events Conditions
12:03 AM 28.9 °F 18.2 °F 23.0 °F 78% 30.25 in 8.0 mi NE 13.8 mph 21.9 mph N/A   Overcast
12:38 AM 28.0 °F 15.3 °F 21.9 °F 78% 30.26 in 10.0 mi NE 18.4 mph - N/A   Overcast
12:52 AM 28.0 °F 15.7 °F 21.9 °F 78% 30.28 in 9.0 mi NE 17.3 mph 27.6 mph N/A   Overcast
1:08 AM 27.0 °F 13.5 °F 21.0 °F 78% 30.26 in 4.0 mi NE 19.6 mph 31.1 mph 0.00 in Snow Light Snow
1:40 AM 27.0 °F 13.5 °F 21.0 °F 78% 30.27 in 2.5 mi NE 19.6 mph - 0.00 in Snow Light Snow
1:52 AM 26.1 °F 12.7 °F 21.0 °F 81% 30.30 in 2.0 mi NE 18.4 mph - 0.00 in Snow Light Snow
2:13 AM 26.1 °F 11.0 °F 21.0 °F 81% 30.28 in 3.0 mi NE 24.2 mph 31.1 mph 0.00 in Snow Light Snow
2:52 AM 26.1 °F 11.3 °F 17.1 °F 69% 30.30 in 10.0 mi NE 23.0 mph 35.7 mph 0.00 in   Overcast
3:52 AM 24.1 °F 6.9 °F 16.0 °F 71% 30.31 in 10.0 mi NE 29.9 mph 38.0 mph N/A   Overcast
4:48 AM 21.2 °F 4.5 °F 15.8 °F 80% 30.29 in 5.0 mi NE 24.2 mph 34.5 mph 0.00 in Snow Light Snow
4:52 AM 21.9 °F 5.5 °F 15.1 °F 75% 30.32 in 5.0 mi NE 24.2 mph 34.5 mph 0.00 in Snow Light Snow
5:30 AM 21.0 °F 5.4 °F 17.1 °F 85% 30.31 in 2.0 mi NE 20.7 mph - 0.00 in Snow Light Snow
5:41 AM 21.9 °F 5.8 °F 15.1 °F 75% 30.31 in 6.0 mi NE 23.0 mph 29.9 mph 0.00 in Snow Light Snow
5:52 AM 21.0 °F 3.3 °F 14.0 °F 74% 30.33 in 10.0 mi NE 27.6 mph 38.0 mph 0.00 in   Overcast
6:35 AM 19.9 °F 2.2 °F 12.0 °F 71% 30.30 in 10.0 mi NE 26.5 mph 33.4 mph N/A   Overcast
6:52 AM 19.9 °F 1.8 °F 12.0 °F 71% 30.34 in 10.0 mi NE 27.6 mph 34.5 mph N/A   Overcast
7:12 AM 19.9 °F 3.2 °F 10.9 °F 68% 30.30 in 10.0 mi NE 23.0 mph 33.4 mph N/A   Overcast
7:52 AM 19.0 °F 2.0 °F 10.0 °F 68% 30.34 in 10.0 mi NE 23.0 mph 31.1 mph N/A   Partly Cloudy
8:16 AM 19.0 °F 1.3 °F 10.0 °F 68% 30.32 in 10.0 mi NE 25.3 mph 34.5 mph N/A   Mostly Cloudy
8:52 AM 19.9 °F 2.8 °F 10.9 °F 68% 30.35 in 8.0 mi NE 24.2 mph 29.9 mph 0.00 in Snow Light Snow
9:52 AM 21.9 °F 6.2 °F 10.9 °F 63% 30.35 in 10.0 mi NE 21.9 mph 38.0 mph 0.00 in   Scattered Clouds
10:52 AM 23.0 °F 8.7 °F 12.0 °F 63% 30.37 in 10.0 mi NE 18.4 mph 28.8 mph N/A   Scattered Clouds
11:52 AM 23.0 °F 8.0 °F 10.0 °F 58% 30.39 in 10.0 mi ENE 20.7 mph 28.8 mph N/A   Clear
12:52 PM 23.0 °F 7.6 °F 9.0 °F 55% 30.36 in 10.0 mi NE 21.9 mph 27.6 mph N/A   Clear
1:52 PM 26.1 °F 12.0 °F 9.0 °F 49% 30.33 in 10.0 mi NE 20.7 mph 28.8 mph N/A   Clear
2:52 PM 26.1 °F 13.1 °F 10.0 °F 51% 30.30 in 10.0 mi NE 17.3 mph - N/A   Clear
3:52 PM 27.0 °F 14.3 °F 12.0 °F 53% 30.27 in 10.0 mi NE 17.3 mph 27.6 mph N/A   Clear
4:52 PM 25.0 °F 10.9 °F 10.9 °F 55% 30.25 in 10.0 mi NE 19.6 mph 25.3 mph N/A   Clear
5:52 PM 24.1 °F 10.6 °F 10.0 °F 55% 30.24 in 10.0 mi NE 17.3 mph - N/A   Clear
6:52 PM 21.9 °F 7.8 °F 10.9 °F 63% 30.25 in 10.0 mi NE 17.3 mph - N/A   Clear
7:52 PM 21.0 °F 8.1 °F 10.0 °F 63% 30.25 in 10.0 mi NE 13.8 mph - N/A   Clear
8:52 PM 19.9 °F 8.6 °F 10.9 °F 68% 30.24 in 10.0 mi NNE 10.4 mph - N/A   Clear
9:52 PM 19.0 °F 6.8 °F 10.0 °F 68% 30.22 in 10.0 mi NNE 11.5 mph - N/A   Clear
10:52 PM 18.0 °F 6.9 °F 10.9 °F 74% 30.20 in 10.0 mi NNE 9.2 mph - N/A   Clear
11:52 PM 18.0 °F 9.8 °F 10.0 °F 71% 30.21 in 10.0 mi North 5.8 mph - N/A   Clear